User: anonymous   Login
Location: Unspecified
(0.0000°N, 0.0000°E)
Time: 21:54:32
(UTC+00:00)
Language:

ICEYE-X49 - Orbit

View from above orbital plane
View from above orbital plane
View from above satellite
View from above satellite

Ground track
Ground track

The orbit is defined by the following mean orbital elements,

1 62384U          26145.38832902 +.00000000 +00000-0 +17327-3 0 00002
2 62384  44.9972 119.0812 0001282 286.4761  73.5975 15.12778750    08
Epoch (UTC): 25 May 2026 09:19:11
Eccentricity: 0.0001282
inclination: 44.9972°
perigee height: 527 km
apogee height: 529 km
right ascension of ascending node: 119.0812°
argument of perigee: 286.4761°
revolutions per day: 15.12778750
mean anomaly at epoch: 73.5975°

The dashed part of the orbit path shows where the satellite is in the earth's shadow,  

DLR